Regional Weather Roundup
Issued by NWS

Home | Current Version | Previous Version | Graphics & Text | Print | Product List | Glossary On
Versions: 1 2 3 4 5 6 7 8 9 10 11 12 13 14 15 16 17 18 19 20 21 22 23 24 25 26 27 28 29 30 31 32 33 34 35 36 37 38 39 40 41 42 43 44 45 46 47 48 49 50
640
ASUS45 KTFX 242210
RWRMT
MONTANA REGIONAL WEATHER ROUNDUP
NATIONAL WEATHER SERVICE GREAT FALLS MT
400 PM MDT THU MAY 24 2018

NOTE: "FAIR" INDICATES FEW OR NO CLOUDS BELOW 12000 FEET WITH NO
SIGNIFICANT WEATHER AND/OR OBSTRUCTIONS TO VISIBILITY.

MTZ001>007-043-242300-
WEST OF THE DIVIDE

CITY           SKY/WX    TMP DP  RH WIND       PRES   REMARKS
KALISPELL      PTSUNNY   69  57  65 S20       29.93F
MISSOULA       FAIR      77  50  38 NW8       29.96F
BUTTE          FAIR      71  43  36 NW16G26   30.06S
MULLAN PASS    PTSUNNY   61  46  57 VRB6      30.10F
ANACONDA         N/A     72  43  35 MISG      30.03F
DEER LODGE       N/A     70  46  43 MISG      30.04S
HAMILTON         N/A     66  46  48 W14       30.02R
RONAN            N/A     73  55  53 S14       29.98S
$$

MTZ008-052>055-242300-
SOUTHWEST MONTANA

CITY           SKY/WX    TMP DP  RH WIND       PRES   REMARKS
BOZEMAN        FAIR      74  47  38 SW16      29.99F
DILLON         FAIR      68  46  45 SW12      30.05F
ENNIS          PTSUNNY   66  48  52 SE15G22   30.10F
W YELLOWSTONE  PTSUNNY   59  48  67 SW12G20   30.15S
TWIN BRIDGES     N/A     72  41  32 S10       30.02F
$$

MTZ009-010-012-014-046-048-049-054-242300-
EAST SLOPES AND CENTRAL MONTANA

CITY           SKY/WX    TMP DP  RH WIND       PRES   REMARKS
CUT BANK       FAIR      75  46  35 W30G38    29.85S
GREAT FALLS    FAIR      79  46  31 W21G32    29.88F
MALMSTROM AFB  FAIR      75  45  33 W20G25    29.88S
HELENA         FAIR      77  47  34 W20G28    29.94S
AUGUSTA        FAIR      71  43  37 W18G26    29.93F
BOWMANS CRNR   FAIR      71  45  39 W22       29.92S
CHOTEAU          N/A     75  45  33 W20       29.91S
FAIRFIELD      FAIR      73  46  36 W16G23    29.90S
POWER          FAIR      75  43  32 W18       29.88S
RAYNESFORD     FAIR      71  47  41 SW18G26   29.91F
ULM            PTSUNNY   74  45  35 W18G25    29.90F
WHITE SULPHUR    N/A     72  45  37 W18G26    29.98F
$$

MTZ011-013-016-021-045-047-050-051-242300-
NORTH CENTRAL MONTANA

CITY           SKY/WX    TMP DP  RH WIND       PRES   REMARKS
HAVRE          FAIR      82  47  29 SW16G23   29.76F
LEWISTOWN      PTSUNNY   71  47  42 W17       29.90F
N BAR RANCH    PTSUNNY   72  46  40 NW17G24   29.94S
CHINOOK          N/A     81  45  28 W12       29.75
DENTON         FAIR      76  47  35 W25       29.84F
GEYSER         FAIR      72  47  40 W24       29.89S
GRASS RANGE    FAIR      73  48  41 W17G29    29.85F
JUDITH GAP     PTSUNNY   70  50  50 W10       29.94S
ROY            FAIR      75  49  40 W24G30    29.85F
STANFORD       FAIR      72  47  41 W15       29.92S
WINIFRED       FAIR      73  51  46 NW13      29.86F
$$

MTZ017>020-022>027-061-062-242300-
NORTHEAST MONTANA

CITY           SKY/WX    TMP DP  RH WIND       PRES   REMARKS
GLASGOW        FAIR      82  53  36 W12       29.75F
GLENDIVE       FAIR      76  57  51 W13       29.82F
JORDAN           N/A     77  55  46 W13       29.81F
MALTA          MOSUNNY   79  52  38 W6G16     29.74S
SIDNEY         FAIR      74  60  61 NW8       29.77F
WOLF POINT     FAIR      81  57  43 W16G22    29.76F
PLENTYWOOD       N/A     70  61  73 CALM      29.75S
POPLAR           N/A     77  55  47 MISG      29.76S
SCOBEY           N/A     73  51  45 SW16      29.76F
$$

MTZ028>42-056>058-242300-
SOUTHCENTRAL AND SOUTHEAST MONTANA

CITY           SKY/WX    TMP DP  RH WIND       PRES   REMARKS
BAKER          FAIR      77  56  48 W18G24    29.87F
BILLINGS       FAIR      78  52  40 SW15G22   29.91F
LIVINGSTON     PTSUNNY   74  49  41 SW21G30   29.98S
MILES CITY     FAIR      78  58  49 W14       29.84F
BIG TIMBER     MOSUNNY   73  48  40 W21G29    29.97F
HARLOWTON      PTSUNNY   67  52  58 W12       29.94S
LAUREL           N/A     77  54  44 W9G15     29.93S
$$

REGIONAL REPORTS...DAKOTAS

CITY           SKY/WX    TMP DP  RH WIND       PRES   REMARKS
WILLISTON      FAIR      78  56  46 SW16G24   29.75F
MINOT          PTSUNNY   78  52  40 W20       29.70R
DICKINSON      FAIR      78  53  41 W20G28    29.80F
BEACH          FAIR      75  54  46 W16G25    29.87S
CROSBY         FAIR      73  64  73 SW14      29.73S
TIOGA          FAIR      68  68 100 W9        29.77F
WATFORD CITY   FAIR      73  59  60 W14G21    29.77S
BISMARCK       FAIR      84  54  35 W13       29.76S
GRAND FORKS    FAIR      90  56  31 S22G35    29.69F
FARGO          FAIR      91  56  30 S15G26    29.74F
BUFFALO SD       N/A     81  53  37 W18G29    29.82F
RAPID CITY     FAIR      80  54  40 E7        29.92F
$$

REGIONAL REPORTS...WYOMING/IDAHO/WASHINGTON

CITY           SKY/WX    TMP DP  RH WIND       PRES   REMARKS
GILLETTE       PTSUNNY   78  47  33 VRB3      29.96F
SHERIDAN       FAIR      77  54  44 VRB3      29.94F
BUFFALO WY     PTSUNNY   73  46  38 N10       30.01S
CODY           FAIR      73  43  33 W15G24    30.04F
IDAHO FALLS    PTSUNNY   73  50  44 SW14G22   30.08F
SALMON         CLOUDY    67  53  61 SW6       30.06S
BOISE          FAIR      83  48  29 W6        29.97F
SPOKANE        FAIR      77  53  43 SW13      29.95F
$$

REGIONAL REPORTS...ALBERTA

CITY           SKY/WX    TMP DP  RH WIND       PRES   REMARKS
CALGARY        PTSUNNY   77  39  25 NW18G29   29.75S
CARDSTON         N/A     77  46  33 W15G23      N/A
EDMONTON       SUNNY     77  52  41 SE18G24   29.66S
FORT MCMURRAY  MOSUNNY   86  43  22 SE6       29.61F
HIGH LEVEL     PTSUNNY   79  46  31 VRB2      29.61F
LETHBRIDGE     MOSUNNY   82  45  26 W28G36    29.73S
LLOYDMINSTER   PTSUNNY   64  57  77 N10       29.71F
MEDICINE HAT   MOSUNNY   88  41  19 SW16      29.65F
MILK RIVER       N/A     81  45  28 W21G28      N/A
PEACE RIVER    PTSUNNY   82  46  28 SW10      29.62F
PINCHER CREEK    N/A    N/A N/A N/A W32         N/A
WATERTON GATE    N/A     73  41  31 SW20G29     N/A
$$

REGIONAL REPORTS...SASKATCHEWAN

CITY           SKY/WX    TMP DP  RH WIND       PRES   REMARKS
CORONACH         N/A     73  54  49 W16G23      N/A
MOOSE JAW        N/A     73  55  53 N5          N/A
PRINCE ALBERT  CLOUDY    70  57  64 SE6       29.68F
REGINA         PTSUNNY   70  57  64 CALM      29.71F
ROCKGLEN         N/A     68  55  64 SW14G21     N/A
SASKATOON      CLOUDY    77  55  47 SW13      29.67F
SWIFT CURRENT  TSTM      68  54  60 NW29G37   29.71
VAL MARIE        N/A     82  43  24 W17G25      N/A
$$




USA.gov is the U.S. government's official web portal to all federal, state and local government web resources and services.